Terminal Aerodrome Forecast
Issued by NWS Columbia, SC

Home | Current Version | Previous Version | Text Only | Print | Product List | Glossary On
Versions: 1 2 3 4 5 6 7 8 9 10 11 12 13 14 15 16 17 18 19 20 21 22 23 24 25 26 27 28 29 30 31 32 33 34 35 36 37 38 39 40 41 42 43 44 45 46 47 48 49 50
000
FTUS42 KCAE 290528
TAFAGS
TAF
KAGS 290528Z 2906/3006 VRB03KT P6SM SCT250
      TEMPO 2909/2912 4SM BR
     FM291400 11004KT P6SM SCT030
     FM291800 13008KT P6SM SCT050
     FM292300 VRB03KT P6SM SCT250=

USA.gov is the U.S. government's official web portal to all federal, state and local government web resources and services.